DateTimeUTC,F1_A11,F1_S11,BsB_S11,BsG_S11,BsR_S11,BbsB_S11,BbsG_S11,BbsR_S11,BaB_A11,BaG_A11,BaR_A11,Tu_S11,T_S11,Uu_S11,U_S11,P_S11,T1_A11
2021-06-06T01:00:00Z,00000200,20000000,,,,,,,-000.16,0000.15,0000.00,18.2,25.0,09.2,06.0,0675.1,31.0
2021-06-06T01:01:00Z,00000200,20000000,,,,,,,0000.31,-000.21,-000.02,18.2,25.0,08.9,05.9,0675.1,31.0
2021-06-06T01:02:00Z,00000200,20000000,,,,,,,-000.06,0000.02,-000.36,18.2,25.0,08.9,05.9,0675.1,31.0
2021-06-06T01:03:00Z,00000200,60000000,,,,,,,0000.46,0000.25,0000.53,18.2,25.0,08.9,05.9,0675.1,31.0
2021-06-06T01:04:00Z,00000200,40000000,0001.31,0000.44,0000.43,-000.02,0000.22,0000.01,0000.13,0000.26,0000.15,18.3,24.8,08.8,05.9,0676.0,31.0
2021-06-06T01:05:00Z,00000200,00000000,0001.05,0000.56,0000.34,0000.57,0000.37,0000.04,0000.47,0000.61,0000.50,18.3,24.7,08.7,05.9,0676.1,31.0
2021-06-06T01:06:00Z,00000200,00000000,0001.23,0000.67,0000.43,0000.65,-000.02,-000.16,0000.79,0000.69,0000.40,18.3,24.7,09.0,06.1,0676.1,31.0
2021-06-06T01:07:00Z,00000200,00000000,0000.87,0000.33,0000.33,0000.29,0000.01,0000.01,0000.51,0000.43,0000.22,18.3,24.7,09.1,06.2,0676.1,31.0
2021-06-06T01:08:00Z,00000200,00000000,0000.61,0000.65,0000.43,0000.52,0000.04,0000.22,0000.04,0000.12,0000.67,18.3,24.7,09.1,06.2,0676.1,31.0
2021-06-06T01:09:00Z,00000200,00000000,0001.08,0000.45,0000.32,0000.11,0000.23,-000.07,0000.79,0000.59,-000.08,18.3,24.7,09.0,06.1,0676.1,31.0
2021-06-06T01:10:00Z,00000200,00000000,0000.74,0000.33,0000.18,0000.66,-000.18,-000.41,0000.24,0000.32,0000.28,18.3,24.7,08.9,06.0,0676.1,31.0
2021-06-06T01:11:00Z,00000200,00000000,0000.58,0000.31,0000.40,-000.05,0000.08,0000.07,0000.65,0000.10,0000.41,18.3,24.7,09.0,06.1,0676.1,31.0
2021-06-06T01:12:00Z,00000200,00000000,0001.00,0000.54,0000.08,-000.05,0000.14,-000.17,0000.63,0000.88,0000.50,18.3,24.7,09.0,06.1,0676.1,31.0
2021-06-06T01:13:00Z,00000200,00000000,0000.97,0000.38,0000.27,-000.46,0000.30,0000.17,0000.63,0000.09,0000.62,18.3,24.7,09.1,06.2,0676.0,31.0
2021-06-06T01:14:00Z,00000200,00000000,0000.63,0000.65,0000.38,0000.30,0000.23,0000.11,0000.24,0000.96,-000.08,18.3,24.7,09.1,06.1,0676.0,31.0
2021-06-06T01:15:00Z,00000200,00000000,0001.18,0000.31,0000.14,0000.31,0000.13,0000.02,0000.49,0000.06,0000.61,18.3,24.7,09.1,06.2,0676.0,31.0
2021-06-06T01:16:00Z,00000200,00000000,0000.91,0000.57,0000.15,0000.06,0000.25,0000.01,0000.93,0000.42,0000.10,18.3,24.7,09.2,06.2,0676.0,31.0
2021-06-06T01:17:00Z,00000200,00000000,0001.10,0000.50,0000.20,-000.53,0000.14,-000.06,0000.32,0000.71,0000.56,18.3,24.7,09.2,06.3,0676.0,31.0
2021-06-06T01:18:00Z,00000200,00000000,0001.22,0000.52,0000.38,0000.37,0000.16,0000.26,0000.09,0000.08,0000.08,18.3,24.7,09.1,06.2,0676.0,31.0
2021-06-06T01:19:00Z,00000200,00000000,0001.09,0000.67,0000.48,0000.16,0000.01,0000.11,0000.59,0000.31,0000.33,18.3,24.7,09.1,06.2,0676.0,31.0
2021-06-06T01:20:00Z,00000200,00000000,0001.00,0000.24,0000.61,0000.53,0000.19,0000.24,0000.49,0000.70,0000.25,18.3,24.6,09.1,06.1,0676.0,31.0
2021-06-06T01:21:00Z,00000200,00000000,0000.74,0000.44,0000.28,0000.20,0000.14,-000.13,0000.29,0000.53,0000.11,18.3,24.6,09.2,06.3,0676.0,31.0
2021-06-06T01:22:00Z,00000200,00000000,0001.18,0000.26,0000.15,0000.07,-000.06,0000.21,0000.59,0000.11,0000.40,18.3,24.6,09.3,06.3,0676.0,31.0
2021-06-06T01:23:00Z,00000200,00000000,0001.11,0000.64,0000.38,0000.39,0000.31,0000.13,0000.37,0000.29,0000.51,18.3,24.6,09.2,06.3,0676.0,31.0
2021-06-06T01:24:00Z,00000200,00000000,0001.29,0000.39,0000.42,0000.59,0000.01,0000.07,0000.31,0000.27,0000.21,18.3,24.6,09.1,06.2,0676.0,31.0
2021-06-06T01:25:00Z,00000200,00000000,0001.41,0000.25,0000.35,0000.62,0000.00,-000.03,0000.53,0000.97,0000.50,18.3,24.6,09.1,06.2,0676.0,31.0
2021-06-06T01:26:00Z,00000200,00000000,0000.75,0000.60,0000.33,0000.40,0000.15,0000.08,0000.36,0000.10,0000.17,18.3,24.6,09.1,06.2,0676.0,31.0
2021-06-06T01:27:00Z,00000200,00000000,0001.01,0000.56,0000.33,-000.25,-000.00,0000.22,0000.72,0000.48,0000.42,18.3,24.6,09.4,06.4,0675.9,31.0
2021-06-06T01:28:00Z,00000200,00000000,0001.38,0000.44,0000.18,-000.17,0000.07,0000.06,0000.72,0000.51,0000.32,18.3,24.6,09.5,06.4,0675.9,31.0
2021-06-06T01:29:00Z,00000200,00000000,0000.04,0000.53,0000.27,0000.21,0000.00,-000.01,0000.18,0000.27,0000.06,18.3,24.6,09.5,06.4,0676.0,31.0
2021-06-06T01:30:00Z,00000200,00000000,0000.35,0000.47,0000.69,0000.08,0000.28,0000.12,0000.82,0000.85,0000.42,18.3,24.6,09.5,06.5,0675.9,31.0
2021-06-06T01:31:00Z,00000200,00000000,0000.88,0000.56,0000.57,0000.42,0000.44,0000.12,0000.21,0000.33,0000.63,18.3,24.6,09.7,06.6,0675.9,31.0
2021-06-06T01:32:00Z,00000200,00000000,0001.05,0000.55,0000.59,0000.65,0000.06,0000.06,0000.82,0000.78,0000.57,18.3,24.6,09.8,06.7,0675.9,31.0
2021-06-06T01:33:00Z,00000200,00000000,0001.00,0000.45,0000.70,-000.25,-000.01,-000.01,0000.57,0000.54,0000.10,18.2,24.6,09.9,06.7,0675.9,31.0
2021-06-06T01:34:00Z,00000200,00000000,0001.03,0000.67,0000.59,-000.16,-000.05,0000.30,0000.08,-000.04,0000.37,18.2,24.6,09.9,06.7,0675.9,31.0
2021-06-06T01:35:00Z,00000200,00000000,0000.64,0000.34,0000.30,0000.34,0000.18,0000.07,0000.58,0000.32,-000.05,18.2,24.5,09.9,06.7,0675.9,31.0
2021-06-06T01:36:00Z,00000200,00000000,0001.11,0000.48,0000.22,0000.81,0000.19,-000.02,0000.34,0000.53,0000.34,18.2,24.5,09.8,06.6,0675.9,31.0
2021-06-06T01:37:00Z,00000200,00000000,0000.51,0000.39,0000.29,-000.00,0000.00,0000.02,0000.20,0000.03,0000.34,18.2,24.5,09.7,06.6,0675.9,31.0
2021-06-06T01:38:00Z,00000200,00000000,0000.85,0000.40,0000.60,0000.32,0000.18,0000.04,0000.42,0000.39,0000.24,18.2,24.5,09.7,06.6,0675.9,31.0
2021-06-06T01:39:00Z,00000200,00000000,0001.08,0000.59,0000.43,0000.45,0000.28,0000.18,0000.22,0000.36,0000.06,18.2,24.5,09.7,06.6,0675.9,31.0
2021-06-06T01:40:00Z,00000200,00000000,0000.80,0000.53,0000.29,0000.24,-000.04,-000.22,0000.51,0000.02,0000.41,18.2,24.5,09.6,06.5,0675.9,31.0
2021-06-06T01:41:00Z,00000200,00000000,0001.07,0000.35,0000.34,0000.53,0000.11,0000.04,-000.02,0000.18,0000.13,18.2,24.5,09.6,06.6,0675.9,31.0
2021-06-06T01:42:00Z,00000200,00000000,0000.30,0000.44,0000.58,0000.35,0000.14,0000.02,0000.76,0000.77,0000.35,18.2,24.5,09.6,06.5,0675.9,31.0
2021-06-06T01:43:00Z,00000200,00000000,0000.53,0000.50,0000.71,0000.23,-000.09,0000.23,-000.05,0000.00,0000.27,18.2,24.5,09.6,06.5,0675.9,31.0
2021-06-06T01:44:00Z,00000200,00000000,0000.81,0000.48,0000.36,0000.62,0000.09,-000.20,0000.26,0000.59,-000.15,18.2,24.5,09.6,06.5,0675.9,31.0
2021-06-06T01:45:00Z,00000200,00000000,0000.84,-000.02,0000.28,0000.22,-000.19,0000.01,0000.62,0000.23,0000.60,18.2,24.5,09.6,06.5,0675.9,31.0
2021-06-06T01:46:00Z,00000200,00000000,0000.83,0000.53,0000.46,0000.22,0000.07,0000.13,0000.50,0000.39,0000.35,18.2,24.5,09.5,06.5,0675.8,31.0
2021-06-06T01:47:00Z,00000200,00000000,0000.80,0000.33,0000.55,0000.01,0000.39,-000.06,0000.59,0000.40,0000.09,18.2,24.5,09.5,06.4,0675.8,31.0
2021-06-06T01:48:00Z,00000200,00000000,0000.47,0000.46,0000.38,-000.11,0000.14,0000.07,0000.36,0000.32,0000.44,18.2,24.5,09.5,06.5,0675.8,31.0
2021-06-06T01:49:00Z,00000200,00000000,0001.14,0000.37,0000.44,0000.69,0000.27,-000.01,0000.41,0000.40,0000.07,18.2,24.5,09.5,06.5,0675.8,31.0
2021-06-06T01:50:00Z,00000200,00000000,0000.60,0000.52,0000.32,0000.36,0000.30,0000.17,0000.41,0000.39,0000.17,18.2,24.5,09.5,06.4,0675.8,31.0
2021-06-06T01:51:00Z,00000200,00000000,0000.89,0000.37,0000.17,0000.14,0000.07,0000.11,0000.19,0000.29,0000.37,18.2,24.5,09.5,06.4,0675.8,31.0
2021-06-06T01:52:00Z,00000200,00000000,0000.09,0000.21,0000.18,0000.46,0000.34,-000.09,0000.59,0000.46,0000.19,18.2,24.5,09.5,06.4,0675.8,31.0
2021-06-06T01:53:00Z,00000200,00000000,0000.93,0000.38,0000.23,0000.28,0000.03,-000.14,0000.04,0000.16,0000.33,18.2,24.5,09.5,06.4,0675.8,31.0
2021-06-06T01:54:00Z,00000200,00000000,0000.26,0000.12,0000.34,0000.50,0000.10,0000.14,0000.92,0000.63,0000.39,18.2,24.5,09.5,06.4,0675.8,31.0
2021-06-06T01:55:00Z,00000200,00000000,0001.09,0000.48,0000.54,0000.36,0000.11,0000.05,0000.37,0000.66,0000.45,18.1,24.4,09.5,06.5,0675.8,31.0
2021-06-06T01:56:00Z,00000200,00000000,0001.09,0000.35,0000.49,-000.15,0000.19,0000.19,0000.46,0000.38,0000.38,18.1,24.4,09.6,06.5,0675.8,31.0
2021-06-06T01:57:00Z,00000200,40000000,,,,,,,-000.15,-000.26,-000.05,18.2,24.5,09.3,06.3,0675.8,31.0
2021-06-06T01:58:00Z,00000200,60000000,,,,,,,0000.22,0000.07,0000.04,17.9,24.6,09.6,06.3,0674.8,30.9
2021-06-06T01:59:00Z,00000200,20000000,,,,,,,0000.22,0000.15,0000.05,17.9,24.7,09.6,06.3,0674.7,31.0
